{"data":{"norad_id":42989,"epoch":"2026-05-25T03:01:14.569248Z","epoch_age_seconds":60616,"freshness":"FRESH","line1":"1 42989U 17068C   26145.12586307  .00012176  00000+0  29786-3 0  9995","line2":"2 42989  97.4392 282.4786 0007997 210.9483 149.1293 15.40910005479200","mean_motion":15.40910005,"eccentricity":0.0007997,"inclination_deg":97.4392,"raan_deg":282.4786,"arg_perigee_deg":210.9483,"mean_anomaly_deg":149.1293,"bstar":0.00029786,"rev_number":47920,"period_min":93.4512719969,"perigee_km":437.96708591145,"apogee_km":448.87748783487,"semimajor_km":6821.5592868732,"source":"CELESTRAK","updated_at":"2026-05-25T13:38:13.296380Z"}}